Regional Weather Roundup
Issued by NWS Charleston, SC

Current Version | Previous Version | Graphics & Text | Print | Product List | Glossary On
Versions: 1 2 3 4 5 6 7 8 9 10 11 12 13 14 15 16 17 18 19 20 21 22 23 24 25 26 27 28 29 30 31 32 33 34 35 36 37 38 39 40 41 42 43 44 45 46 47 48 49 50
751
ASUS42 KCHS 021828
RWRCHS

REGIONAL WEATHER ROUNDUP
NATIONAL WEATHER SERVICE CHARLESTON SC
200 PM EDT MON MAY 02 2016

NOTE: "FAIR" INDICATES FEW OR NO CLOUDS BELOW 12,000 FEET WITH NO
SIGNIFICANT WEATHER AND/OR OBSTRUCTIONS TO VISIBILITY.

NOT ALL STATIONS ARE QUALITY CONTROLLED. USE DATA WITH CAUTION...
ESPECIALLY DEWPOINT OBSERVATIONS.

SCZ027-030-031-034>040-042>050-021900-
...SOUTHEAST SOUTH CAROLINA...

CITY           SKY/WX    TMP DP  RH WIND       PRES   REMARKS
N CHARLESTON   PTSUNNY   85  66  53 SW12      30.01F
6HR MIN TEMP:  73; 6HR MAX TEMP:  87;

WATERFRONT PRK   N/A     79  70  74 SW10      30.01F
MOUNT PLEASANT FAIR      84  72  65 S15G21    30.02F
JOHNS ISLAND   FAIR      82  72  69 S16       30.03S
PINOPOLIS        N/A     84  70  61 VRB3      29.95F
MONCKS CORNER  FAIR      81  64  57 S12G17    30.01F
SUMMERVILLE    FAIR      86  70  58 S5        30.02F HX  90
BEAUFORT MCAS  TSTM      84  72  67 S8        30.02F
6HR MIN TEMP:  75; 6HR MAX TEMP:  89; 6HR PCP: TRACE;

BEAUFORT ARPT  FAIR      81  68  65 S9        30.02S
HILTON HEAD IS NOT AVBL
WALTERBORO     PTCLDY    88  66  48 S7        30.01F HX  90
ALLENDALE      MOCLDY    84  70  61 S6        30.00F

...SOUTHERN MIDLANDS AND PEE DEE...

CITY           SKY/WX    TMP DP  RH WIND       PRES   REMARKS
GEORGETOWN     MOCLDY    77  70  78 CALM      30.03S
KINGSTREE      FAIR      84  66  54 S7        30.00F
ORANGEBURG     MOSUNNY   85  67  54 S10       30.00F
6HR MIN TEMP:  69; 6HR MAX TEMP:  86;

BARNWELL       MOCLDY    90  72  55 S9        30.00F HX  96
AIKEN          MOCLDY    82  63  51 S7        30.01F
MANNING        FAIR      82  66  57 S6        30.00F
COLUMBIA       PTSUNNY   87  69  54 VRB6      29.97F HX  91
6HR MIN TEMP:  69; 6HR MAX TEMP:  87;

SUMTER         MOSUNNY   85  68  57 SW8       29.97
6HR MIN TEMP:  69; 6HR MAX TEMP:  85;

FLORENCE       MOSUNNY   84  68  58 S12       30.00F
6HR MIN TEMP:  71; 6HR MAX TEMP:  85;

MYRTLE BEACH   PTSUNNY   81  66  61 S14       30.05F
N MYRTLE BEACH PTSUNNY   75  70  84 S12       30.02F
6HR MIN TEMP:  73; 6HR MAX TEMP:  79;


$$

GAZ063-065-086>088-099>101-113>116-118-119-134>141-150-021900-
...SOUTHEAST GEORGIA...

CITY           SKY/WX    TMP DP  RH WIND       PRES   REMARKS
SAVANNAH ARPT  CLOUDY    87  67  51 VRB5      30.01F HX  90
6HR MIN TEMP:  74; 6HR MAX TEMP:  88;

HUNTER AAF     MOSUNNY   85  75  71 SE13      29.99  HX  93
6HR MIN TEMP:  75; 6HR MAX TEMP:  86;

FORT STEWART   MOSUNNY   85  69  57 VRB5      29.99F
6HR MIN TEMP:  70; 6HR MAX TEMP:  86;

STATESBORO     CLOUDY    89  75  63 SW9       30.01F HX  98
SYLVANIA       PTCLDY    86  74  67 SW5       30.01F HX  93
CLAXTON        FAIR      85  73  66 S5        30.00F HX  92

...CSRA...CENTRAL AND FAR SOUTHEAST GEORGIA...

CITY           SKY/WX    TMP DP  RH WIND       PRES   REMARKS
THOMSON        MOSUNNY   89  68  50 SW8G17    30.03F HX  93
AUGUSTA-BUSH   MOSUNNY   89  64  43 S13G25    29.97F HX  90
6HR MIN TEMP:  67; 6HR MAX TEMP:  89;

AUGUSTA-DANIEL CLOUDY    88  66  48 S13       29.99F HX  90
SWAINSBORO     MOCLDY    86  64  48 S7        30.01F
VIDALIA        PTSUNNY   84  70  61 S8        30.01F
EASTMAN        FAIR      85  68  55 SW7       30.04S
HAZLEHURST     FAIR      87  68  52 S6        30.00S HX  90
ALMA           PTSUNNY   86  68  54 SW6       30.01F
6HR MIN TEMP:  70; 6HR MAX TEMP:  86;

WAYCROSS       PTSUNNY   86  69  58 SW5       30.01S HX  90
JESUP          FAIR      90  73  58 SW9       30.01S HX  98
BAXLEY         FAIR      88  70  55 SW5       30.00F HX  92
BRUNSWICK      PTSUNNY   88  73  62 SE12      30.02F HX  96
SAINT SIMONS   MOSUNNY   80  73  79 S13G21    30.03F
6HR MIN TEMP:  74; 6HR MAX TEMP:  82;


$$

SCZ027-028-034-036>038-045-046-048>050-GAZ119-141-021900-
...LAKE AND SUPPLEMENTAL COASTAL OBSERVATIONS...

STATION/POSITION TIME  TEMP    WIND        PRES    WAVE   SWELL
                       AIR SEA DIR/SP/G            HT/PER HT/PER/DIR
                 (UTC) (F)     (DEG/KT/KT) (MB)    (FT/S) (FT/S/D)
WINYAH BAY       1700   81     210/ 11     1016.0
LAKE MURRAY      1700   81      CALM  /  1 1015.2F
ACE BASIN NERRS  1700   81     160/  1     1017.0F
FORT PULASKI     1800   80 74  160/  7/ 13 1017.1F
SAPELO ISLAND    1800   79     150/ 11     1017.0S

$$

ANZ835-935-AMZ111-154-330-350-352-354-370-450-454-472-021900-
...C-MAN AND BUOY OBSERVATIONS...

STATION/POSITION TIME  TEMP    WIND        PRES    WAVE   SWELL
                       AIR SEA DIR/SP/G            HT/PER HT/PER/DIR
                 (UTC) (F)     (DEG/KT/KT) (MB)    (FT/S) (FT/S/D)
BUOY 41004       1750   76 75  210/  6/  8 1017.2F   3/ 6   3/ 6
BUOY 41008       NOT AVBL
FOLLY BEACH CMAN 1800   77     200/ 10/ 13 1017.5F
CAPERS NEARSHORE 1708   75 74  210/  8/ 10 1017.3F
FRIPP NEARSHORE  1808   75 74  200/ 12/ 14 1016.4F


STATION/POSITION TIME  TEMP    WIND        PRES    WAVE   SWELL
                       AIR SEA DIR/SP/G            HT/PER HT/PER/DIR
                 (UTC) (F)     (DEG/KT/KT) (MB)    (FT/S) (FT/S/D)
5E ST. MARYS GA  1721      74                N/A     3/10
FRYING PAN BUOY  1800   74 73  180/ 10/ 12 1017.6F
BUOY 41025       1750   75 74  220/ 17/ 21 1016.6F   4/11   3/ 70/11
CAPE LOOKOUT NC  1800   75     200/ 13/ 18 1016.7F
BUOY 41002       1750   74 75  160/ 12/ 14 1020.1F   3/11   3/ 40/11
BUOY 41010       1720   78 79  150/ 12/ 12 1018.7F
ST AUGUSTINE FL  1800   75 74  120/ 11/ 12 1017.7F


$$




USA.gov is the U.S. government's official web portal to all federal, state and local government web resources and services.